Miscellaneous Local Product
Issued by NWS North Platte, NE

Home | Current Version | Previous Version | Graphics & Text | Print | Product List | Glossary On
Versions: 1 2 3 4 5 6 7 8 9 10 11 12 13 14 15 16 17 18 19 20 21 22 23 24 25 26 27 28 29 30 31 32 33 34 35 36 37 38 39 40 41 42 43 44 45 46 47 48 49 50
000
AXUS43 KLBF 290710
MISLBF


WESTERN AND NORTH CENTRAL NEBRASKA HOURLY WEATHER ROUNDUP
NATIONAL WEATHER SERVICE NORTH PLATTE NE
200 AM CDT MON JUN 29 2015

***STATIONS NOT REPORTING VARIABLES SUCH AS SKY/WEATHER OR
PRESSURE ARE PROVIDED BY THE NEBRASKA DEPARTMENT OF
ROADS...RAWS...AND APRS NETWORKS...AND ARE NOT UNDER
NATIONAL WEATHER SERVICE QUALITY CONTROL***

...OBSERVATIONS IN AND NEAR THE EASTERN PANHANDLE OF NEBRASKA...

CITY           SKY/WX    TMP DP  RH WIND       PRES   REMARKS
PINE RIDGE     CLEAR     58  55  90 CALM      30.10R
CHADRON        PTCLDY    62  60  93 W3        30.09R
ALLIANCE       PTCLDY    60  56  86 W6        30.13R
SIDNEY         PTCLDY    59  55  87 SW7       30.17S
WHITECLAY        N/A     59  56  91 SE6         N/A
CRESCENT LAKE    N/A     66  58  75 S3          N/A
BIG SPRINGS      N/A     65  60  82 CALM        N/A
$$

...OBSERVATIONS IN NORTH CENTRAL NEBRASKA...

CITY           SKY/WX    TMP DP  RH WIND       PRES   REMARKS
VALENTINE      CLEAR     58  56  93 W3        30.05S
THEDFORD       CLEAR     60  57  88 SW6       30.08R
AINSWORTH      CLEAR     60  55  83 SW3       30.05S
O`NEILL        CLOUDY    61  58  88 W6        30.00S
ORD            CLEAR     57  54  89 CALM      30.00S
BROKEN BOW     CLEAR     57  54  89 NW3       30.04S
VALENTINE NWR    N/A     60  59  96 CALM        N/A
SPRINGVIEW       N/A     58  55  89 CALM        N/A
HALSEY           N/A     65  53  65 CALM        N/A
BREWSTER         N/A     59  57  94 W3          N/A
ROSE             N/A     74  72  93 W5          N/A
NEWPORT          N/A     57  56  95 W5          N/A
SARGENT          N/A     58  56  93 CALM        N/A
CHAMBERS         N/A     59  54  84 CALM        N/A
EWING            N/A     61  57  88 CALM        N/A
$$

...OBSERVATIONS IN SOUTHWEST NEBRASKA AND FAR NORTHEAST COLORADO...

CITY           SKY/WX    TMP DP  RH WIND       PRES   REMARKS
WRAY           FAIR      63  55  73 W6        30.13S
HOLYOKE        FAIR      63  57  82 CALM      30.14R
IMPERIAL       CLEAR     65  58  78 NW3       30.10S
OGALLALA       PTCLDY    61  57  85 W5        30.11R
NORTH PLATTE   PTCLDY    59  56  89 W3        30.07S
MCCOOK         CLEAR     65  57  75 N5        30.06R
LEXINGTON      CLEAR     58  55  88 CALM      30.05S
PAXTON           N/A     62  57  85 CALM        N/A
GOTHENBURG       N/A     65  55  69 CALM        N/A
CALLAWAY         N/A     57  53  88 CALM        N/A
$$

...NORTH PLATTE AREA...

CITY           SKY/WX    TMP DP  RH WIND       PRES   REMARKS
AIRPORT        PTCLDY    59  56  89 W3        30.07S
DOWNTOWN         N/A     65  59  82 CALM        N/A
SANDRIDGE        N/A     66  59  79 CALM        N/A
HILLCREST        N/A     66  57  73 CALM        N/A
$$

...SOME WEATHER OBSERVATIONS FROM AROUND THE REGION...

CITY           SKY/WX    TMP DP  RH WIND       PRES   REMARKS
DENVER         CLOUDY    67  53  61 SW12      30.21F
LARAMIE        CLOUDY    58  50  75 SE7       30.35F
CHEYENNE       LGT RAIN  67  54  63 W10       30.26F
SCOTTSBLUFF    PTCLDY    67  57  70 CALM      30.13F
RAPID CITY     CLEAR     65  59  81 E5        30.07S
PIERRE         CLEAR     66  56  70 W5        29.98R
WINNER         FAIR      64  52  64 SW6       30.01R
SIOUX FALLS    CLEAR     66  59  78 CALM      29.91R
OMAHA          CLEAR     69  60  73 CALM      29.90S
GRAND ISLAND   CLEAR     60  54  80 W6        30.00S
KANSAS CITY    CLEAR     68  61  78 NW8       29.88S
WICHITA        PTCLDY    74  58  57 CALM      29.95R
HAYS           PTCLDY    66  48  52 E3        30.02R
LIBERAL        PTCLDY    75  61  60 N9          N/A
GOODLAND       CLEAR     68  51  54 S8        30.12R
$$



USA.gov is the U.S. government's official web portal to all federal, state and local government web resources and services.